Home   Weather   San Juan   Past weeks
Flag for Puerto Rico

Past Weather in San Juan, Puerto Rico — Yesterday and Last 2 Weeks

Now
78 °F

Passing clouds.


Feels Like: 81 °F
Forecast: 87 / 79 °F
Wind: 3 mph from South

Location: Luis Munoz Marin

Current Time: May 21, 2019 at 2:45:16 am

Latest Report: May 21, 2019 at 1:56 am


Visibility: 10 mi

Pressure: 29.96 "Hg

Humidity: 84%

Dew Point: 73 °F

Location of San JuanLocation

Past Weather in San Juan — Graph

°F

San Juan Temperature Yesterday

Maximum temperature yesterday: 88 °F (at 11:56 am)
Minimum temperature yesterday: 79 °F (at 12:56 am)
Average temperature yesterday: 82 °F

High & Low Weather Summary for the Past Weeks

 TemperatureHumidityPressure
High92 °F (May 13, 1:56 pm)88% (May 6, 4:56 am)30.08 "Hg (May 6, 4:56 am)
Low73 °F (May 8, 5:56 am)44% (May 14, 1:56 pm)29.90 "Hg (May 18, 3:56 pm)
Average81 °F75%29.99 "Hg
* Reported May 6 12:56 am — May 21 12:56 am, San Juan. Weather by CustomWeather, © 2019

Note: Actual official high and low records may vary slightly from our data, if they occured in-between our weather recording intervals... More about our weather records

Advertising

San Juan Weather History for the Previous 24 Hours

Scroll right to see more
 ConditionsComfort  
Time TempWeatherWind HumidityBarometerVisibility
12:56 am
Tue, May 21
79 °FPassing clouds.No wind82%29.97 "Hg10 mi
11:56 pm
Mon, May 20
79 °FPassing clouds.No wind82%29.99 "Hg10 mi
10:56 pm80 °FPassing clouds.3 mph79%30.00 "Hg10 mi
9:56 pm80 °FPassing clouds.No wind81%29.99 "Hg10 mi
8:56 pm80 °FClear.7 mph79%29.98 "Hg10 mi
7:56 pm81 °FPassing clouds.3 mph74%29.96 "Hg10 mi
6:56 pm81 °FScattered clouds.7 mph77%29.95 "Hg10 mi
5:56 pm82 °FScattered clouds.9 mph72%29.95 "Hg10 mi
4:56 pm82 °FBroken clouds.10 mph77%29.94 "Hg10 mi
3:56 pm82 °FBroken clouds.7 mph82%29.95 "Hg10 mi
2:56 pm83 °FBroken clouds.13 mph77%29.95 "Hg10 mi
1:56 pm83 °FScattered clouds.3 mph74%29.96 "Hg10 mi
12:56 pm87 °FScattered clouds.12 mph63%29.97 "Hg10 mi
11:56 am88 °FScattered clouds.17 mph57%29.99 "Hg10 mi
10:56 am87 °FBroken clouds.14 mph61%30.00 "Hg10 mi
9:56 am84 °FBroken clouds.18 mph65%30.00 "Hg10 mi
8:56 am84 °FScattered clouds.13 mph70%30.00 "Hg10 mi
7:56 am81 °FScattered clouds.10 mph77%30.00 "Hg10 mi
6:56 am79 °FScattered clouds.6 mph82%29.98 "Hg10 mi
5:56 am79 °FPassing clouds.7 mph82%29.97 "Hg10 mi
4:56 am79 °FPassing clouds.3 mph79%29.95 "Hg10 mi
3:56 am79 °FPassing clouds.6 mph82%29.94 "Hg10 mi
2:56 am79 °FPartly cloudy.3 mph79%29.95 "Hg10 mi
Weather by CustomWeather, © 2019

See weather overview